| time (UTC) | temp C | wind direction | speed KPH | gust KPH | rain 1hr cm | rain 24hr cm | rain mn cm | humidity % | barometer mb |
| 20260507161825 | 26 | 194 | 4.8 | 9.7 | 0.00 | 0.00 | 0.00 | 23 | 1017.5 |
| 20260507161315 | 26 | 159 | 3.2 | 8.0 | 0.00 | 0.00 | 0.00 | 23 | 1017.7 |
| 20260507160821 | 25 | 159 | 1.6 | 3.2 | 0.00 | 0.00 | 0.00 | 23 | 1017.7 |
| 20260507160316 | 25 | 159 | 0.0 | 3.2 | 0.00 | 0.00 | 0.00 | 24 | 1017.7 |
| 20260507155823 | 25 | 159 | 0.0 | 4.8 | 0.00 | 0.00 | 0.00 | 23 | 1017.8 |
| 20260507155334 | 25 | 159 | 1.6 | 3.2 | 0.00 | 0.00 | 0.00 | 24 | 1017.8 |
| 20260507154840 | 25 | 159 | 0.0 | 3.2 | 0.00 | 0.00 | 0.00 | 24 | 1017.8 |
| 20260507154330 | 25 | 159 | 0.0 | 3.2 | 0.00 | 0.00 | 0.00 | 24 | 1017.9 |
| 20260507153817 | 24 | 159 | 0.0 | 3.2 | 0.00 | 0.00 | 0.00 | 24 | 1017.8 |
| 20260507153328 | 24 | 159 | 0.0 | 3.2 | 0.00 | 0.00 | 0.00 | 25 | 1017.8 |
| 20260507152815 | 23 | 159 | 0.0 | 3.2 | 0.00 | 0.00 | 0.00 | 27 | 1017.8 |
| 20260507152324 | 23 | 159 | 1.6 | 4.8 | 0.00 | 0.00 | 0.00 | 26 | 1017.8 |
| 20260507151831 | 23 | 159 | 1.6 | 4.8 | 0.00 | 0.00 | 0.00 | 26 | 1017.8 |
| 20260507151322 | 22 | 159 | 1.6 | 6.4 | 0.00 | 0.00 | 0.00 | 28 | 1017.9 |
| 20260507150813 | 22 | 159 | 0.0 | 3.2 | 0.00 | 0.00 | 0.00 | 32 | 1017.9 |
| 20260507150323 | 22 | 159 | 0.0 | 4.8 | 0.00 | 0.00 | 0.00 | 28 | 1017.9 |
| 20260507145829 | 22 | 159 | 1.6 | 8.0 | 0.00 | 0.00 | 0.00 | 28 | 1017.9 |
| 20260507145320 | 21 | 161 | 1.6 | 6.4 | 0.00 | 0.00 | 0.00 | 30 | 1017.9 |
| 20260507144847 | 21 | 161 | 0.0 | 1.6 | 0.00 | 0.00 | 0.00 | 30 | 1017.9 |
| 20260507144317 | 21 | 161 | 0.0 | 4.8 | 0.00 | 0.00 | 0.00 | 30 | 1017.9 |
| 20260507143844 | 21 | 161 | 1.6 | 4.8 | 0.00 | 0.00 | 0.00 | 30 | 1018.0 |
| 20260507143314 | 21 | 161 | 0.0 | 4.8 | 0.00 | 0.00 | 0.00 | 32 | 1017.9 |
| 20260507142821 | 20 | 161 | 0.0 | 4.8 | 0.00 | 0.00 | 0.00 | 33 | 1017.8 |
| 20260507142332 | 20 | 163 | 1.6 | 6.4 | 0.00 | 0.00 | 0.00 | 34 | 1017.8 |
| 20260507141818 | 20 | 163 | 1.6 | 8.0 | 0.00 | 0.00 | 0.00 | 35 | 1017.7 |
| 20260507141314 | 20 | 163 | 1.6 | 8.0 | 0.00 | 0.00 | 0.00 | 36 | 1017.7 |
| 20260507140821 | 19 | 207 | 1.6 | 4.8 | 0.00 | 0.00 | 0.00 | 37 | 1017.7 |
| 20260507140332 | 18 | 207 | 0.0 | 4.8 | 0.00 | 0.00 | 0.00 | 40 | 1017.7 |
| 20260507135819 | 18 | 223 | 0.0 | 1.6 | 0.00 | 0.00 | 0.00 | 41 | 1017.7 |
| 20260507135330 | 17 | 223 | 0.0 | 0.0 | 0.00 | 0.00 | 0.00 | 44 | 1017.7 |
| 20260507134817 | 17 | 223 | 0.0 | 0.0 | 0.00 | 0.00 | 0.00 | 46 | 1017.6 |
| 20260507134328 | 16 | 223 | 0.0 | 0.0 | 0.00 | 0.00 | 0.00 | 47 | 1017.5 |
| 20260507133815 | 16 | 223 | 0.0 | 0.0 | 0.00 | 0.00 | 0.00 | 49 | 1017.4 |
| 20260507133325 | 16 | 223 | 0.0 | 0.0 | 0.00 | 0.00 | 0.00 | 50 | 1017.3 |
| 20260507132832 | 16 | 223 | 0.0 | 0.0 | 0.00 | 0.00 | 0.00 | 46 | 1017.3 |
| 20260507132327 | 16 | 223 | 0.0 | 0.0 | 0.00 | 0.00 | 0.00 | 46 | 1017.3 |
| 20260507131814 | 16 | 223 | 0.0 | 0.0 | 0.00 | 0.00 | 0.00 | 45 | 1017.2 |
| 20260507131345 | 15 | 223 | 0.0 | 0.0 | 0.00 | 0.00 | 0.00 | 45 | 1017.2 |
| 20260507130831 | 15 | 223 | 0.0 | 0.0 | 0.00 | 0.00 | 0.00 | 44 | 1017.2 |
| 20260507130343 | 15 | 223 | 0.0 | 0.0 | 0.00 | 0.00 | 0.00 | 43 | 1017.2 |
| 20260507125829 | 15 | 223 | 0.0 | 1.6 | 0.00 | 0.00 | 0.00 | 42 | 1017.1 |
| 20260507125320 | 15 | 223 | 0.0 | 3.2 | 0.00 | 0.00 | 0.00 | 43 | 1017.1 |
| 20260507124827 | 15 | 223 | 0.0 | 3.2 | 0.00 | 0.00 | 0.00 | 43 | 1017.0 |
| 20260507124318 | 15 | 223 | 0.0 | 0.0 | 0.00 | 0.00 | 0.00 | 44 | 1017.0 |
| 20260507123826 | 15 | 223 | 0.0 | 0.0 | 0.00 | 0.00 | 0.00 | 43 | 1017.0 |
| 20260507123321 | 15 | 223 | 0.0 | 3.2 | 0.00 | 0.00 | 0.00 | 44 | 1016.9 |
| 20260507122848 | 15 | 223 | 0.0 | 3.2 | 0.00 | 0.00 | 0.00 | 45 | 1016.9 |
| 20260507122316 | 15 | 223 | 0.0 | 3.2 | 0.00 | 0.00 | 0.00 | 44 | 1016.9 |
| 20260507121823 | 15 | 223 | 0.0 | 3.2 | 0.00 | 0.00 | 0.00 | 44 | 1016.9 |
| 20260507121313 | 15 | 223 | 0.0 | 3.2 | 0.00 | 0.00 | 0.00 | 44 | 1016.8 |
| 20260507120841 | 15 | 223 | 0.0 | 1.6 | 0.00 | 0.00 | 0.00 | 44 | 1016.9 |
| 20260507120332 | 15 | 223 | 0.0 | 1.6 | 0.00 | 0.00 | 0.00 | 45 | 1016.9 |
| 20260507115819 | 15 | 223 | 0.0 | 0.0 | 0.00 | 0.00 | 0.00 | 45 | 1017.0 |
| 20260507115330 | 15 | 223 | 0.0 | 0.0 | 0.00 | 0.00 | 0.00 | 44 | 1016.9 |
| 20260507114818 | 15 | 223 | 0.0 | 0.0 | 0.00 | 0.00 | 0.00 | 45 | 1017.0 |
| 20260507114330 | 15 | 223 | 0.0 | 0.0 | 0.00 | 0.00 | 0.00 | 43 | 1017.0 |
| 20260507113822 | 16 | 223 | 0.0 | 0.0 | 0.00 | 0.00 | 0.00 | 43 | 1017.0 |
| 20260507113314 | 16 | 223 | 0.0 | 0.0 | 0.00 | 0.00 | 0.00 | 43 | 1016.9 |
| 20260507112820 | 16 | 223 | 0.0 | 0.0 | 0.00 | 0.00 | 0.00 | 42 | 1016.9 |
| 20260507112329 | 16 | 223 | 0.0 | 0.0 | 0.00 | 0.00 | 0.00 | 42 | 1016.9 |
| 20260507111815 | 16 | 223 | 0.0 | 0.0 | 0.00 | 0.00 | 0.00 | 42 | 1016.9 |
| 20260507111325 | 16 | 223 | 0.0 | 0.0 | 0.00 | 0.00 | 0.00 | 40 | 1016.9 |
| 20260507110813 | 16 | 223 | 0.0 | 0.0 | 0.00 | 0.00 | 0.00 | 40 | 1016.9 |
| 20260507110346 | 16 | 223 | 0.0 | 1.6 | 0.00 | 0.00 | 0.00 | 40 | 1016.9 |
| 20260507105832 | 16 | 223 | 0.0 | 1.6 | 0.00 | 0.00 | 0.00 | 42 | 1017.0 |
| 20260507105321 | 16 | 223 | 0.0 | 3.2 | 0.00 | 0.00 | 0.00 | 43 | 1017.0 |
| 20260507104828 | 16 | 223 | 0.0 | 3.2 | 0.00 | 0.00 | 0.00 | 45 | 1017.0 |
| 20260507104318 | 16 | 223 | 0.0 | 0.0 | 0.00 | 0.00 | 0.00 | 47 | 1017.1 |
| 20260507103845 | 16 | 223 | 0.0 | 0.0 | 0.00 | 0.00 | 0.00 | 49 | 1017.1 |
| 20260507103319 | 16 | 223 | 0.0 | 0.0 | 0.00 | 0.00 | 0.00 | 48 | 1017.1 |
| 20260507102825 | 16 | 223 | 0.0 | 0.0 | 0.00 | 0.00 | 0.00 | 49 | 1017.1 |
| 20260507102336 | 16 | 223 | 0.0 | 0.0 | 0.00 | 0.00 | 0.00 | 49 | 1017.2 |
| 20260507101823 | 16 | 223 | 0.0 | 0.0 | 0.00 | 0.00 | 0.00 | 49 | 1017.1 |
| 20260507101313 | 16 | 223 | 0.0 | 0.0 | 0.00 | 0.00 | 0.00 | 47 | 1017.2 |
| 20260507100821 | 16 | 223 | 0.0 | 0.0 | 0.00 | 0.00 | 0.00 | 46 | 1017.2 |
| 20260507100313 | 16 | 223 | 0.0 | 0.0 | 0.00 | 0.00 | 0.00 | 45 | 1017.2 |
| 20260507095840 | 16 | 223 | 0.0 | 0.0 | 0.00 | 0.00 | 0.00 | 45 | 1017.3 |
| 20260507095329 | 16 | 223 | 0.0 | 0.0 | 0.00 | 0.00 | 0.00 | 45 | 1017.4 |
| 20260507094817 | 16 | 223 | 0.0 | 0.0 | 0.00 | 0.00 | 0.00 | 45 | 1017.5 |
| 20260507094326 | 16 | 223 | 0.0 | 0.0 | 0.00 | 0.00 | 0.00 | 46 | 1017.5 |
| 20260507093816 | 16 | 223 | 0.0 | 0.0 | 0.00 | 0.00 | 0.00 | 46 | 1017.6 |
| 20260507093326 | 16 | 223 | 0.0 | 0.0 | 0.00 | 0.00 | 0.00 | 46 | 1017.6 |
| 20260507092815 | 16 | 223 | 0.0 | 0.0 | 0.00 | 0.00 | 0.00 | 46 | 1017.7 |
| 20260507092325 | 16 | 223 | 0.0 | 0.0 | 0.00 | 0.00 | 0.00 | 47 | 1017.7 |
| 20260507091813 | 16 | 223 | 0.0 | 0.0 | 0.00 | 0.00 | 0.00 | 46 | 1017.7 |
| 20260507091324 | 16 | 223 | 0.0 | 0.0 | 0.00 | 0.00 | 0.00 | 45 | 1017.7 |
| 20260507090832 | 17 | 223 | 0.0 | 0.0 | 0.00 | 0.00 | 0.00 | 45 | 1017.7 |
| 20260507090323 | 17 | 223 | 0.0 | 0.0 | 0.00 | 0.00 | 0.00 | 45 | 1017.6 |
| 20260507085829 | 17 | 223 | 0.0 | 0.0 | 0.00 | 0.00 | 0.00 | 45 | 1017.7 |
| 20260507085325 | 17 | 223 | 0.0 | 0.0 | 0.00 | 0.00 | 0.00 | 45 | 1017.7 |
| 20260507084852 | 17 | 223 | 0.0 | 0.0 | 0.00 | 0.00 | 0.00 | 45 | 1017.8 |
| 20260507084322 | 17 | 223 | 0.0 | 0.0 | 0.00 | 0.00 | 0.00 | 45 | 1017.9 |
| 20260507083849 | 17 | 223 | 0.0 | 0.0 | 0.00 | 0.00 | 0.00 | 44 | 1017.8 |
| 20260507083319 | 17 | 223 | 0.0 | 0.0 | 0.00 | 0.00 | 0.00 | 43 | 1017.9 |
| 20260507082847 | 17 | 223 | 0.0 | 0.0 | 0.00 | 0.00 | 0.00 | 43 | 1017.9 |
| 20260507082316 | 17 | 223 | 0.0 | 0.0 | 0.00 | 0.00 | 0.00 | 43 | 1017.9 |
| 20260507081824 | 17 | 223 | 0.0 | 0.0 | 0.00 | 0.00 | 0.00 | 43 | 1017.9 |
| 20260507081316 | 17 | 223 | 0.0 | 1.6 | 0.00 | 0.00 | 0.00 | 43 | 1017.9 |
| 20260507080823 | 17 | 223 | 0.0 | 4.8 | 0.00 | 0.00 | 0.00 | 42 | 1018.0 |
| 20260507080314 | 17 | 223 | 0.0 | 3.2 | 0.00 | 0.00 | 0.00 | 41 | 1018.0 |
| 20260507075825 | 17 | 223 | 0.0 | 0.0 | 0.00 | 0.00 | 0.00 | 41 | 1018.1 |
| 20260507075335 | 17 | 223 | 0.0 | 0.0 | 0.00 | 0.00 | 0.00 | 42 | 1018.1 |
| 20260507074822 | 18 | 223 | 0.0 | 0.0 | 0.00 | 0.00 | 0.00 | 43 | 1018.1 |
| 20260507074313 | 18 | 223 | 0.0 | 3.2 | 0.00 | 0.00 | 0.00 | 42 | 1018.1 |
| 20260507073820 | 18 | 223 | 0.0 | 3.2 | 0.00 | 0.00 | 0.00 | 42 | 1018.1 |
| 20260507073329 | 18 | 223 | 0.0 | 0.0 | 0.00 | 0.00 | 0.00 | 43 | 1018.1 |
| 20260507072817 | 18 | 223 | 0.0 | 0.0 | 0.00 | 0.00 | 0.00 | 42 | 1018.1 |
| 20260507072327 | 18 | 223 | 0.0 | 0.0 | 0.00 | 0.00 | 0.00 | 42 | 1018.1 |
| 20260507071816 | 18 | 223 | 0.0 | 0.0 | 0.00 | 0.00 | 0.00 | 43 | 1018.1 |
| 20260507071328 | 18 | 223 | 0.0 | 0.0 | 0.00 | 0.00 | 0.00 | 42 | 1018.0 |
| 20260507070821 | 18 | 223 | 0.0 | 0.0 | 0.00 | 0.00 | 0.00 | 38 | 1018.0 |
| 20260507070315 | 18 | 223 | 0.0 | 0.0 | 0.00 | 0.00 | 0.00 | 39 | 1017.9 |
| 20260507065842 | 18 | 223 | 0.0 | 0.0 | 0.00 | 0.00 | 0.00 | 41 | 1018.0 |
| 20260507065332 | 18 | 223 | 0.0 | 0.0 | 0.00 | 0.00 | 0.00 | 42 | 1018.0 |
| 20260507064819 | 19 | 223 | 0.0 | 0.0 | 0.00 | 0.00 | 0.00 | 41 | 1018.0 |
| 20260507064331 | 19 | 223 | 0.0 | 0.0 | 0.00 | 0.00 | 0.00 | 41 | 1017.9 |
| 20260507063818 | 19 | 223 | 0.0 | 0.0 | 0.00 | 0.00 | 0.00 | 41 | 1017.9 |
| 20260507063328 | 19 | 223 | 0.0 | 0.0 | 0.00 | 0.00 | 0.00 | 39 | 1017.9 |
| 20260507062816 | 19 | 223 | 0.0 | 0.0 | 0.00 | 0.00 | 0.00 | 38 | 1017.8 |
| 20260507062327 | 19 | 223 | 0.0 | 0.0 | 0.00 | 0.00 | 0.00 | 37 | 1017.7 |
| 20260507061817 | 20 | 223 | 0.0 | 0.0 | 0.00 | 0.00 | 0.00 | 36 | 1017.8 |
| 20260507061348 | 20 | 223 | 0.0 | 0.0 | 0.00 | 0.00 | 0.00 | 35 | 1017.8 |
| 20260507060815 | 20 | 223 | 0.0 | 0.0 | 0.00 | 0.00 | 0.00 | 40 | 1017.8 |
| 20260507060325 | 20 | 223 | 0.0 | 0.0 | 0.00 | 0.00 | 0.00 | 40 | 1017.9 |
| 20260507055814 | 20 | 223 | 0.0 | 0.0 | 0.00 | 0.00 | 0.00 | 38 | 1017.9 |
| 20260507055346 | 20 | 223 | 0.0 | 0.0 | 0.00 | 0.00 | 0.00 | 40 | 1017.9 |
| 20260507054832 | 20 | 223 | 0.0 | 0.0 | 0.00 | 0.00 | 0.00 | 34 | 1017.8 |
| 20260507054323 | 20 | 223 | 0.0 | 0.0 | 0.00 | 0.00 | 0.00 | 34 | 1017.8 |
| 20260507053832 | 20 | 223 | 0.0 | 0.0 | 0.00 | 0.00 | 0.00 | 34 | 1017.8 |
| 20260507053322 | 20 | 223 | 0.0 | 0.0 | 0.00 | 0.00 | 0.00 | 34 | 1017.7 |
| 20260507052833 | 21 | 223 | 0.0 | 0.0 | 0.00 | 0.00 | 0.00 | 33 | 1017.7 |
| 20260507052324 | 21 | 223 | 0.0 | 0.0 | 0.00 | 0.00 | 0.00 | 32 | 1017.8 |
| 20260507051831 | 21 | 223 | 0.0 | 0.0 | 0.00 | 0.00 | 0.00 | 32 | 1017.8 |
| 20260507051322 | 21 | 223 | 0.0 | 0.0 | 0.00 | 0.00 | 0.00 | 32 | 1017.8 |
| 20260507050827 | 21 | 223 | 0.0 | 0.0 | 0.00 | 0.00 | 0.00 | 31 | 1017.8 |
| 20260507050319 | 21 | 223 | 0.0 | 0.0 | 0.00 | 0.00 | 0.00 | 32 | 1017.7 |
| 20260507045825 | 21 | 223 | 0.0 | 0.0 | 0.00 | 0.00 | 0.00 | 32 | 1017.6 |
| 20260507045314 | 21 | 223 | 0.0 | 0.0 | 0.00 | 0.00 | 0.00 | 31 | 1017.6 |
| 20260507044821 | 21 | 223 | 0.0 | 0.0 | 0.00 | 0.00 | 0.00 | 31 | 1017.6 |
| 20260507044330 | 22 | 223 | 0.0 | 0.0 | 0.00 | 0.00 | 0.00 | 31 | 1017.5 |
| 20260507043837 | 22 | 223 | 0.0 | 0.0 | 0.00 | 0.00 | 0.00 | 30 | 1017.5 |
| 20260507043326 | 22 | 223 | 0.0 | 0.0 | 0.00 | 0.00 | 0.00 | 29 | 1017.5 |
| 20260507042819 | 22 | 223 | 0.0 | 0.0 | 0.00 | 0.00 | 0.00 | 27 | 1017.5 |
| 20260507042330 | 22 | 223 | 0.0 | 0.0 | 0.00 | 0.00 | 0.00 | 27 | 1017.5 |
| 20260507041839 | 22 | 223 | 0.0 | 0.0 | 0.00 | 0.00 | 0.00 | 27 | 1017.4 |
| 20260507041348 | 22 | 223 | 0.0 | 0.0 | 0.00 | 0.00 | 0.00 | 26 | 1017.3 |
| 20260507040816 | 23 | 223 | 0.0 | 0.0 | 0.00 | 0.00 | 0.00 | 27 | 1017.3 |
| 20260507040328 | 23 | 223 | 0.0 | 0.0 | 0.00 | 0.00 | 0.00 | 26 | 1017.3 |
| 20260507035815 | 23 | 223 | 0.0 | 0.0 | 0.00 | 0.00 | 0.00 | 25 | 1017.2 |
| 20260507035326 | 23 | 223 | 0.0 | 0.0 | 0.00 | 0.00 | 0.00 | 25 | 1017.1 |
| 20260507034833 | 23 | 223 | 0.0 | 0.0 | 0.00 | 0.00 | 0.00 | 25 | 1017.0 |
| 20260507034324 | 23 | 223 | 0.0 | 0.0 | 0.00 | 0.00 | 0.00 | 25 | 1017.0 |
| 20260507033815 | 24 | 223 | 0.0 | 0.0 | 0.00 | 0.00 | 0.00 | 24 | 1017.0 |
| 20260507033326 | 24 | 223 | 0.0 | 0.0 | 0.00 | 0.00 | 0.00 | 24 | 1016.9 |
| 20260507032814 | 24 | 223 | 0.0 | 0.0 | 0.00 | 0.00 | 0.00 | 23 | 1016.8 |
| 20260507032325 | 25 | 223 | 0.0 | 0.0 | 0.00 | 0.00 | 0.00 | 23 | 1016.8 |
| 20260507031832 | 25 | 223 | 0.0 | 0.0 | 0.00 | 0.00 | 0.00 | 23 | 1016.7 |
| 20260507031323 | 25 | 223 | 0.0 | 0.0 | 0.00 | 0.00 | 0.00 | 22 | 1016.7 |
| 20260507030830 | 25 | 223 | 0.0 | 0.0 | 0.00 | 0.00 | 0.00 | 22 | 1016.6 |
| 20260507030342 | 25 | 223 | 0.0 | 0.0 | 0.00 | 0.00 | 0.00 | 22 | 1016.5 |
| 20260507025828 | 25 | 223 | 0.0 | 0.0 | 0.00 | 0.00 | 0.00 | 21 | 1016.5 |
| 20260507025323 | 26 | 223 | 0.0 | 0.0 | 0.00 | 0.00 | 0.00 | 21 | 1016.4 |
| 20260507024850 | 26 | 223 | 0.0 | 0.0 | 0.00 | 0.00 | 0.00 | 20 | 1016.4 |
| 20260507024339 | 26 | 223 | 0.0 | 0.0 | 0.00 | 0.00 | 0.00 | 20 | 1016.4 |
| 20260507023824 | 26 | 223 | 0.0 | 0.0 | 0.00 | 0.00 | 0.00 | 19 | 1016.3 |
| 20260507023315 | 26 | 223 | 0.0 | 0.0 | 0.00 | 0.00 | 0.00 | 18 | 1016.2 |
| 20260507022822 | 26 | 223 | 0.0 | 0.0 | 0.00 | 0.00 | 0.00 | 18 | 1016.2 |
| 20260507022333 | 27 | 223 | 0.0 | 4.8 | 0.00 | 0.00 | 0.00 | 17 | 1016.1 |
| 20260507021820 | 27 | 223 | 3.2 | 4.8 | 0.00 | 0.00 | 0.00 | 17 | 1016.0 |
| 20260507021331 | 27 | 223 | 0.0 | 4.8 | 0.00 | 0.00 | 0.00 | 17 | 1016.0 |
| 20260507020838 | 27 | 223 | 1.6 | 4.8 | 0.00 | 0.00 | 0.00 | 16 | 1015.9 |
| 20260507020348 | 27 | 223 | 1.6 | 6.4 | 0.00 | 0.00 | 0.00 | 17 | 1016.0 |
| 20260507015814 | 27 | 223 | 1.6 | 8.0 | 0.00 | 0.00 | 0.00 | 16 | 1016.0 |
| 20260507015345 | 27 | 223 | 3.2 | 8.0 | 0.00 | 0.00 | 0.00 | 16 | 1015.9 |
| 20260507014851 | 28 | 212 | 3.2 | 8.0 | 0.00 | 0.00 | 0.00 | 15 | 1015.9 |
| 20260507014325 | 28 | 212 | 3.2 | 6.4 | 0.00 | 0.00 | 0.00 | 15 | 1015.9 |
| 20260507013833 | 28 | 211 | 1.6 | 6.4 | 0.00 | 0.00 | 0.00 | 15 | 1015.9 |
| 20260507013324 | 29 | 209 | 3.2 | 6.4 | 0.00 | 0.00 | 0.00 | 15 | 1015.9 |
| 20260507012831 | 29 | 209 | 3.2 | 6.4 | 0.00 | 0.00 | 0.00 | 14 | 1015.9 |
| 20260507012322 | 30 | 209 | 3.2 | 8.0 | 0.00 | 0.00 | 0.00 | 14 | 1015.9 |
| 20260507011830 | 30 | 209 | 3.2 | 12.9 | 0.00 | 0.00 | 0.00 | 14 | 1015.9 |
| 20260507011321 | 30 | 209 | 4.8 | 12.9 | 0.00 | 0.00 | 0.00 | 14 | 1015.9 |
| 20260507010829 | 30 | 234 | 1.6 | 8.0 | 0.00 | 0.00 | 0.00 | 13 | 1015.9 |
| 20260507010321 | 30 | 234 | 3.2 | 8.0 | 0.00 | 0.00 | 0.00 | 14 | 1015.9 |
| 20260507005831 | 30 | 235 | 3.2 | 8.0 | 0.00 | 0.00 | 0.00 | 13 | 1015.9 |
| 20260507005321 | 31 | 235 | 3.2 | 6.4 | 0.00 | 0.00 | 0.00 | 13 | 1015.9 |
| 20260507004828 | 31 | 236 | 0.0 | 6.4 | 0.00 | 0.00 | 0.00 | 13 | 1015.8 |
| 20260507004339 | 31 | 236 | 1.6 | 6.4 | 0.00 | 0.00 | 0.00 | 13 | 1015.9 |
| 20260507003825 | 31 | 236 | 3.2 | 11.3 | 0.00 | 0.00 | 0.00 | 13 | 1015.9 |
| 20260507003316 | 31 | 236 | 6.4 | 11.3 | 0.00 | 0.00 | 0.00 | 13 | 1015.9 |
| 20260507002823 | 31 | 238 | 3.2 | 8.0 | 0.00 | 0.00 | 0.00 | 13 | 1015.8 |
| 20260507002314 | 31 | 268 | 1.6 | 9.7 | 0.00 | 0.00 | 0.00 | 13 | 1015.8 |
| 20260507001821 | 31 | 268 | 1.6 | 9.7 | 0.00 | 0.00 | 0.00 | 13 | 1015.8 |
| 20260507001331 | 31 | 267 | 3.2 | 9.7 | 0.00 | 0.00 | 0.00 | 13 | 1015.8 |
| 20260507000838 | 30 | 319 | 3.2 | 8.0 | 0.00 | 0.00 | 0.00 | 13 | 1015.8 |
| 20260507000350 | 30 | 322 | 4.8 | 9.7 | 0.00 | 0.00 | 0.00 | 13 | 1015.8 |
| 20260506235838 | 30 | 281 | 6.4 | 11.3 | 0.00 | 0.00 | 0.00 | 13 | 1015.8 |
| 20260506235328 | 30 | 224 | 4.8 | 11.3 | 0.00 | 0.00 | 0.00 | 14 | 1015.7 |
| 20260506234816 | 31 | 207 | 4.8 | 9.7 | 0.00 | 0.00 | 0.00 | 14 | 1015.8 |
| 20260506234327 | 31 | 223 | 3.2 | 11.3 | 0.00 | 0.00 | 0.00 | 13 | 1015.9 |
| 20260506233814 | 31 | 186 | 4.8 | 9.7 | 0.00 | 0.00 | 0.00 | 14 | 1015.9 |
| 20260506233325 | 30 | 242 | 0.0 | 6.4 | 0.00 | 0.00 | 0.00 | 13 | 1016.0 |
| 20260506232831 | 30 | 320 | 1.6 | 8.0 | 0.00 | 0.00 | 0.00 | 13 | 1015.9 |
| 20260506232322 | 30 | 320 | 3.2 | 14.5 | 0.00 | 0.00 | 0.00 | 13 | 1016.0 |
| 20260506231829 | 30 | 317 | 6.4 | 14.5 | 0.00 | 0.00 | 0.00 | 13 | 1016.1 |
| 20260506231320 | 30 | 258 | 4.8 | 16.1 | 0.00 | 0.00 | 0.00 | 14 | 1016.1 |
| 20260506230847 | 30 | 338 | 3.2 | 9.7 | 0.00 | 0.00 | 0.00 | 13 | 1016.1 |
| 20260506230321 | 30 | 275 | 3.2 | 12.9 | 0.00 | 0.00 | 0.00 | 14 | 1016.3 |
| 20260506225827 | 30 | 240 | 3.2 | 12.9 | 0.00 | 0.00 | 0.00 | 14 | 1016.3 |
| 20260506225316 | 30 | 208 | 4.8 | 12.9 | 0.00 | 0.00 | 0.00 | 15 | 1016.4 |
| 20260506224824 | 30 | 360 | 1.6 | 9.7 | 0.00 | 0.00 | 0.00 | 14 | 1016.4 |
| 20260506224315 | 30 | 5 | 1.6 | 14.5 | 0.00 | 0.00 | 0.00 | 14 | 1016.5 |
| 20260506223822 | 30 | 355 | 4.8 | 14.5 | 0.00 | 0.00 | 0.00 | 14 | 1016.6 |
| 20260506223333 | 30 | 36 | 6.4 | 14.5 | 0.00 | 0.00 | 0.00 | 14 | 1016.6 |
| 20260506222820 | 30 | 295 | 4.8 | 12.9 | 0.00 | 0.00 | 0.00 | 14 | 1016.6 |
| 20260506222331 | 30 | 224 | 4.8 | 16.1 | 0.00 | 0.00 | 0.00 | 15 | 1016.7 |
| 20260506221839 | 30 | 248 | 6.4 | 16.1 | 0.00 | 0.00 | 0.00 | 15 | 1016.8 |
| 20260506221333 | 30 | 241 | 3.2 | 16.1 | 0.00 | 0.00 | 0.00 | 14 | 1016.9 |
| 20260506220820 | 30 | 234 | 6.4 | 16.1 | 0.00 | 0.00 | 0.00 | 15 | 1017.0 |
| 20260506220331 | 29 | 219 | 6.4 | 12.9 | 0.00 | 0.00 | 0.00 | 16 | 1017.0 |
| 20260506215818 | 29 | 189 | 4.8 | 14.5 | 0.00 | 0.00 | 0.00 | 15 | 1017.1 |
| 20260506215329 | 29 | 191 | 8.0 | 14.5 | 0.00 | 0.00 | 0.00 | 16 | 1017.1 |
| 20260506214817 | 29 | 244 | 6.4 | 12.9 | 0.00 | 0.00 | 0.00 | 15 | 1017.2 |
| 20260506214328 | 29 | 203 | 1.6 | 9.7 | 0.00 | 0.00 | 0.00 | 15 | 1017.3 |
| 20260506213815 | 29 | 217 | 4.8 | 8.0 | 0.00 | 0.00 | 0.00 | 16 | 1017.4 |
| 20260506213326 | 29 | 136 | 1.6 | 12.9 | 0.00 | 0.00 | 0.00 | 15 | 1017.5 |
| 20260506212817 | 29 | 243 | 3.2 | 19.3 | 0.00 | 0.00 | 0.00 | 14 | 1017.6 |
| 20260506212328 | 29 | 278 | 8.0 | 19.3 | 0.00 | 0.00 | 0.00 | 14 | 1017.7 |
| 20260506211814 | 29 | 335 | 3.2 | 14.5 | 0.00 | 0.00 | 0.00 | 15 | 1017.7 |
| 20260506211325 | 29 | 288 | 4.8 | 12.9 | 0.00 | 0.00 | 0.00 | 15 | 1017.8 |
| 20260506210833 | 29 | 306 | 3.2 | 14.5 | 0.00 | 0.00 | 0.00 | 15 | 1017.9 |
| 20260506210325 | 29 | 275 | 4.8 | 14.5 | 0.00 | 0.00 | 0.00 | 16 | 1017.9 |
| 20260506205832 | 28 | 204 | 1.6 | 8.0 | 0.00 | 0.00 | 0.00 | 17 | 1017.9 |
| 20260506205343 | 28 | 204 | 3.2 | 11.3 | 0.00 | 0.00 | 0.00 | 17 | 1018.0 |
| 20260506204829 | 28 | 206 | 6.4 | 11.3 | 0.00 | 0.00 | 0.00 | 16 | 1018.1 |
| 20260506204340 | 28 | 227 | 1.6 | 12.9 | 0.00 | 0.00 | 0.00 | 17 | 1018.2 |
| 20260506203827 | 28 | 256 | 4.8 | 16.1 | 0.00 | 0.00 | 0.00 | 16 | 1018.4 |
| 20260506203342 | 28 | 320 | 8.0 | 16.1 | 0.00 | 0.00 | 0.00 | 17 | 1018.3 |
| 20260506202848 | 28 | 242 | 3.2 | 12.9 | 0.00 | 0.00 | 0.00 | 17 | 1018.3 |
| 20260506202318 | 28 | 90 | 4.8 | 12.9 | 0.00 | 0.00 | 0.00 | 17 | 1018.4 |
| 20260506201825 | 28 | 306 | 6.4 | 11.3 | 0.00 | 0.00 | 0.00 | 17 | 1018.5 |
| 20260506201316 | 27 | 203 | 1.6 | 11.3 | 0.00 | 0.00 | 0.00 | 18 | 1018.5 |
| 20260506200823 | 27 | 217 | 4.8 | 14.5 | 0.00 | 0.00 | 0.00 | 17 | 1018.6 |
| 20260506200354 | 27 | 248 | 4.8 | 16.1 | 0.00 | 0.00 | 0.00 | 17 | 1018.6 |
| 20260506195821 | 27 | 289 | 4.8 | 8.0 | 0.00 | 0.00 | 0.00 | 17 | 1018.7 |
| 20260506195332 | 27 | 53 | 1.6 | 12.9 | 0.00 | 0.00 | 0.00 | 18 | 1018.7 |
| 20260506194820 | 27 | 53 | 4.8 | 12.9 | 0.00 | 0.00 | 0.00 | 19 | 1018.8 |
| 20260506194315 | 27 | 301 | 4.8 | 9.7 | 0.00 | 0.00 | 0.00 | 19 | 1018.8 |
| 20260506193822 | 26 | 244 | 0.0 | 16.1 | 0.00 | 0.00 | 0.00 | 20 | 1018.9 |
| 20260506193331 | 27 | 275 | 6.4 | 16.1 | 0.00 | 0.00 | 0.00 | 19 | 1019.0 |
| 20260506192818 | 27 | 240 | 6.4 | 16.1 | 0.00 | 0.00 | 0.00 | 20 | 1019.0 |
| 20260506192329 | 26 | 241 | 8.0 | 16.1 | 0.00 | 0.00 | 0.00 | 20 | 1019.1 |
| 20260506191817 | 26 | 291 | 4.8 | 12.9 | 0.00 | 0.00 | 0.00 | 20 | 1019.1 |
| 20260506191328 | 26 | 232 | 4.8 | 12.9 | 0.00 | 0.00 | 0.00 | 20 | 1019.1 |
| 20260506190815 | 26 | 184 | 4.8 | 12.9 | 0.00 | 0.00 | 0.00 | 22 | 1019.2 |
| 20260506190326 | 26 | 150 | 3.2 | 12.9 | 0.00 | 0.00 | 0.00 | 20 | 1019.3 |
| 20260506185814 | 26 | 203 | 3.2 | 8.0 | 0.00 | 0.00 | 0.00 | 21 | 1019.4 |
| 20260506185329 | 26 | 201 | 1.6 | 8.0 | 0.00 | 0.00 | 0.00 | 21 | 1019.4 |
| 20260506184816 | 26 | 200 | 4.8 | 8.0 | 0.00 | 0.00 | 0.00 | 21 | 1019.5 |
| 20260506184326 | 26 | 261 | 4.8 | 12.9 | 0.00 | 0.00 | 0.00 | 21 | 1019.6 |
| 20260506183833 | 26 | 296 | 3.2 | 14.5 | 0.00 | 0.00 | 0.00 | 20 | 1019.7 |
| 20260506183324 | 25 | 300 | 6.4 | 14.5 | 0.00 | 0.00 | 0.00 | 21 | 1019.8 |
| 20260506182831 | 25 | 14 | 1.6 | 8.0 | 0.00 | 0.00 | 0.00 | 23 | 1019.8 |
| 20260506182342 | 25 | 5 | 3.2 | 9.7 | 0.00 | 0.00 | 0.00 | 23 | 1019.9 |
| 20260506181828 | 25 | 355 | 3.2 | 9.7 | 0.00 | 0.00 | 0.00 | 23 | 1019.9 |
| 20260506181339 | 25 | 279 | 3.2 | 8.0 | 0.00 | 0.00 | 0.00 | 24 | 1020.0 |
| 20260506180825 | 24 | 279 | 3.2 | 9.7 | 0.00 | 0.00 | 0.00 | 24 | 1020.1 |
| 20260506180316 | 24 | 196 | 4.8 | 9.7 | 0.00 | 0.00 | 0.00 | 24 | 1020.0 |
| 20260506175827 | 24 | 196 | 1.6 | 8.0 | 0.00 | 0.00 | 0.00 | 25 | 1020.1 |
| 20260506175318 | 24 | 230 | 1.6 | 11.3 | 0.00 | 0.00 | 0.00 | 25 | 1020.1 |
| 20260506174846 | 24 | 230 | 3.2 | 11.3 | 0.00 | 0.00 | 0.00 | 25 | 1020.2 |
| 20260506174316 | 24 | 252 | 1.6 | 14.5 | 0.00 | 0.00 | 0.00 | 25 | 1020.2 |
| 20260506173824 | 24 | 237 | 6.4 | 14.5 | 0.00 | 0.00 | 0.00 | 25 | 1020.2 |
| 20260506173315 | 23 | 198 | 4.8 | 12.9 | 0.00 | 0.00 | 0.00 | 26 | 1020.1 |
| 20260506172822 | 23 | 275 | 1.6 | 9.7 | 0.00 | 0.00 | 0.00 | 26 | 1020.1 |
| 20260506172333 | 23 | 275 | 3.2 | 11.3 | 0.00 | 0.00 | 0.00 | 26 | 1020.1 |
| 20260506171820 | 23 | 275 | 0.0 | 11.3 | 0.00 | 0.00 | 0.00 | 25 | 1020.0 |
| 20260506171315 | 23 | 222 | 6.4 | 11.3 | 0.00 | 0.00 | 0.00 | 26 | 1020.1 |
| 20260506170822 | 23 | 176 | 4.8 | 9.7 | 0.00 | 0.00 | 0.00 | 27 | 1020.0 |
| 20260506170314 | 22 | 176 | 1.6 | 6.4 | 0.00 | 0.00 | 0.00 | 27 | 1020.1 |
| 20260506165821 | 22 | 176 | 3.2 | 11.3 | 0.00 | 0.00 | 0.00 | 29 | 1020.0 |
| 20260506165332 | 22 | 199 | 1.6 | 8.0 | 0.00 | 0.00 | 0.00 | 29 | 1020.0 |
| 20260506164819 | 22 | 199 | 3.2 | 8.0 | 0.00 | 0.00 | 0.00 | 29 | 1020.0 |
| 20260506164330 | 22 | 200 | 1.6 | 6.4 | 0.00 | 0.00 | 0.00 | 28 | 1020.1 |
| 20260506163817 | 22 | 200 | 1.6 | 9.7 | 0.00 | 0.00 | 0.00 | 29 | 1020.1 |
| 20260506163328 | 22 | 200 | 4.8 | 9.7 | 0.00 | 0.00 | 0.00 | 30 | 1020.0 |
| 20260506162819 | 21 | 254 | 1.6 | 6.4 | 0.00 | 0.00 | 0.00 | 30 | 1020.0 |
| 20260506162329 | 21 | 254 | 3.2 | 6.4 | 0.00 | 0.00 | 0.00 | 29 | 1020.0 |